Home   Weather   Kerman   Past weeks

Flag for Iran Past Weather in Kerman, Iran — Yesterday and Last 2 Weeks

Now
59 °F

Sunny.


Feels Like: 59 °F
Forecast: 26 / 58 °F
Wind: 5 mph from West

Location: Kerman Airport

Current Time: Dec 10, 2016 at 4:35:48 pm

Latest Report: Dec 10, 2016 at 3:30 pm


Visibility: 10 mi

Pressure: 30.01 "Hg (24.35 "Hg at 1762m altitude)

Humidity: 4%

Dew Point: -17 °F

Location of KermanLocation

Past Weather in Kerman — Graph

°F

Kerman Temperature Yesterday

Maximum temperature yesterday: 63 °F (at 11:30 am)
Minimum temperature yesterday: 36 °F (at 11:30 pm)
Average temperature yesterday: 50 °F

High & Low Weather Summary for the Past Weeks

 TemperatureHumidityPressure
High77 °F (Dec 6, 2:30 pm)100% (Nov 26, 11:30 pm)30.45 "Hg (Nov 26, 11:30 pm)
Low23 °F (Dec 10, 6:30 am)2% (Dec 10, 2:30 pm)29.92 "Hg (Dec 9, 2:30 pm)
Average52 °F42%30.24 "Hg
* Reported Nov 25 3:30 pm — Dec 10 3:30 pm, Kerman, Weather by CustomWeather, © 2016

Note: Actual official high and low records may vary slightly from our data, if they occured in-between our weather recording intervals... More about our weather records

Advertising

Kerman Weather History for the Previous 24 Hours

Scroll right to see more
 ConditionsComfort  
Time TempWeatherWind HumidityBarometerVisibility
3:30 pm
Sat, Dec 10
59 °FSunny.5 mph4%30.01 "Hg10 mi
2:30 pm57 °FSunny.7 mph2%30.01 "Hg10 mi
1:30 pm55 °FSunny.5 mph6%30.04 "Hg10 mi
12:30 pm54 °FSunny.5 mph11%30.04 "Hg10 mi
11:30 am52 °FSunny.5 mph17%30.07 "Hg10 mi
10:30 am46 °FSunny.No wind27%30.12 "Hg10 mi
9:30 am43 °FSunny.No wind36%30.12 "Hg10 mi
8:30 am37 °FSunny.No wind41%30.12 "Hg10 mi
7:30 am30 °FSunny.5 mph51%30.12 "Hg10 mi
6:30 am23 °FClear.No wind63%30.09 "Hg10 mi
5:30 am25 °FClear.5 mph59%30.09 "Hg10 mi
4:30 am27 °FClear.7 mph59%30.07 "Hg10 mi
3:30 am30 °FClear.5 mph55%30.07 "Hg10 mi
2:30 am30 °FClear.7 mph55%30.07 "Hg10 mi
1:30 am30 °FClear.7 mph51%30.09 "Hg10 mi
12:30 am34 °FClear.7 mph48%30.07 "Hg10 mi
11:30 pm
Fri, Dec 9
36 °FClear.9 mph41%30.07 "Hg10 mi
10:30 pm39 °FPassing clouds.7 mph39%30.07 "HgN/A
9:30 pm41 °FPassing clouds.9 mph36%30.07 "HgN/A
8:30 pm45 °FPassing clouds.14 mph31%30.04 "HgN/A
7:30 pm52 °FPassing clouds.18 mph24%30.01 "HgN/A
6:30 pm54 °FPassing clouds.14 mph28%29.98 "HgN/A
5:30 pm55 °FPassing clouds.18 mph26%29.95 "Hg5 mi
4:30 pm57 °FSandstorm.18 mph23%29.95 "Hg2 mi
Weather by CustomWeather, © 2016

See weather overviewHow to use our weather pages